Manistique, MI

7:22 PM EDT on April 28, 2017 (GMT -0400)
Schoolcraft County

Weather History for KISQ - February, 2014

Change the Weather History Date:

Tuesday, February 11, 2014

  Actual Average Record
Temperature  
Mean Temperature -1 °F -  
Max Temperature 18 °F 27 °F 44 °F (1999)
Min Temperature -20 °F 8 °F -20 °F (2014)
Degree Days  
Heating Degree Days 66    
Moisture  
Dew Point -5 °F    
Average Humidity 73    
Maximum Humidity 84    
Minimum Humidity 59    
Precipitation  
Precipitation 0.00 in - - ()
Sea Level Pressure  
Sea Level Pressure 30.37 in    
Wind  
Wind Speed 7 mph (SW)    
Max Wind Speed 21 mph    
Max Gust Speed 32 mph    
Visibility 10 miles    
Events      
Averages and records for this station are not official NWS values.
T = Trace of Precipitation, MM = Missing Value Source: NWS Daily Summary

Daily Weather History Graph

Daily Weather History Graph

Search for Another Location

Airport or City:

Trip Planner

Search our weather history database for the weather conditions in past years. The results will help you decide how hot, cold, wet, or windy it might be!

Date:

Astronomy

Feb. 11, 2014 Rise Set
Actual Time 7:53 AM EST 6:05 PM EST
Civil Twilight 7:22 AM EST 6:36 PM EST
Nautical Twilight 6:47 AM EST 7:11 PM EST
Astronomical Twilight 6:12 AM EST 7:46 PM EST
Moon 3:20 PM EST (2/11) 5:34 AM EST (2/11)
Length of Visible Light 11h 13m
Length of Day
10h 11m
Waxing Gibbous, 90% of the Moon is Illuminated
Feb 11
Waxing Gibbous
Feb 14
Full
Feb 22
Last Quarter
Mar 1
New
Mar 8
First Quarter

Hourly Weather History & Observations

Time (EST) Temp. Windchill Dew Point Humidity Pressure Visibility Wind Dir Wind Speed Gust Speed Precip Events Conditions
12:14 AM -10.5 °F -19.8 °F -15.0 °F 80% 30.39 in 10.0 mi WNW 3.5 mph - N/A   Clear
12:34 AM -8.7 °F -17.8 °F -12.6 °F 83% 30.39 in 10.0 mi West 3.5 mph - N/A   Clear
12:54 AM -11.4 °F -20.8 °F -15.7 °F 81% 30.39 in 10.0 mi West 3.5 mph - N/A   Clear
1:14 AM -13.7 °F -23.5 °F -18.2 °F 80% 30.39 in 10.0 mi West 3.5 mph - N/A   Clear
1:34 AM -10.1 °F -23.6 °F -13.7 °F 84% 30.38 in 10.0 mi West 5.8 mph - N/A   Clear
1:55 AM -9.6 °F -22.9 °F -13.9 °F 81% 30.38 in 10.0 mi West 5.8 mph - N/A   Clear
2:14 AM -9.4 °F -22.7 °F -13.9 °F 81% 30.39 in 10.0 mi West 5.8 mph - N/A   Clear
2:34 AM -9.0 °F -23.8 °F -13.4 °F 81% 30.39 in 10.0 mi WNW 6.9 mph - N/A   Clear
2:54 AM -8.1 °F -19.4 °F -12.5 °F 81% 30.39 in 10.0 mi West 4.6 mph - N/A   Clear
3:14 AM -9.4 °F -22.7 °F -14.1 °F 80% 30.40 in 10.0 mi West 5.8 mph - N/A   Clear
3:34 AM -7.1 °F -19.9 °F -11.7 °F 80% 30.40 in 10.0 mi West 5.8 mph - N/A   Clear
3:54 AM -9.9 °F -19.2 °F -14.8 °F 79% 30.39 in 10.0 mi WNW 3.5 mph - N/A   Clear
4:14 AM -10.3 °F -23.8 °F -14.8 °F 81% 30.39 in 10.0 mi West 5.8 mph - N/A   Clear
4:35 AM -12.1 °F -24.0 °F -16.1 °F 83% 30.39 in 10.0 mi WNW 4.6 mph - N/A   Clear
4:54 AM -12.5 °F -24.4 °F -16.6 °F 82% 30.40 in 10.0 mi WNW 4.6 mph - N/A   Clear
5:14 AM -12.1 °F -21.7 °F -16.2 °F 82% 30.40 in 10.0 mi WNW 3.5 mph - N/A   Clear
5:35 AM -13.7 °F - -18.0 °F 81% 30.41 in 10.0 mi Calm Calm - N/A   Clear
5:54 AM -15.0 °F -25.0 °F -20.0 °F 78% 30.42 in 10.0 mi WNW 3.5 mph - N/A   Clear
6:14 AM -16.4 °F -29.1 °F -21.6 °F 77% 30.42 in 10.0 mi West 4.6 mph - N/A   Clear
6:34 AM -16.8 °F -29.5 °F -22.0 °F 77% 30.42 in 10.0 mi WNW 4.6 mph - N/A   Clear
6:54 AM -17.0 °F -27.2 °F -22.2 °F 77% 30.42 in 10.0 mi WNW 3.5 mph - N/A   Clear
7:14 AM -17.1 °F -29.9 °F -22.4 °F 77% 30.43 in 10.0 mi WNW 4.6 mph - N/A   Clear
7:34 AM -14.6 °F -24.5 °F -19.1 °F 80% 30.43 in 10.0 mi WNW 3.5 mph - N/A   Clear
7:54 AM -18.4 °F -28.9 °F -23.6 °F 77% 30.43 in 10.0 mi WNW 3.5 mph - N/A   Clear
8:15 AM -20.6 °F -31.3 °F -26.5 °F 74% 30.43 in 10.0 mi WNW 3.5 mph - N/A   Clear
8:34 AM -18.8 °F -29.3 °F -24.5 °F 75% 30.43 in 10.0 mi WNW 3.5 mph - N/A   Clear
8:54 AM -14.8 °F - -19.8 °F 78% 30.43 in 10.0 mi Calm Calm - N/A   Clear
9:14 AM -12.8 °F - -17.7 °F 79% 30.43 in 10.0 mi Calm Calm - N/A   Clear
9:34 AM -7.1 °F - -11.6 °F 81% 30.43 in 10.0 mi Calm Calm - N/A   Clear
9:54 AM -1.3 °F -11.4 °F -7.2 °F 76% 30.43 in 10.0 mi WSW 4.6 mph - N/A   Clear
10:14 AM 1.9 °F -5.6 °F -5.4 °F 71% 30.43 in 10.0 mi West 3.5 mph - N/A   Clear
10:34 AM 3.9 °F -3.4 °F -5.4 °F 65% 30.43 in 10.0 mi WSW 3.5 mph - N/A   Clear
10:55 AM 5.4 °F -3.6 °F -4.2 °F 65% 30.43 in 10.0 mi SW 4.6 mph - N/A   Clear
11:14 AM 6.6 °F - -3.1 °F 64% 30.43 in 10.0 mi Calm Calm - N/A   Clear
11:34 AM 6.4 °F -0.5 °F -2.9 °F 65% 30.43 in 10.0 mi SSW 3.5 mph - N/A   Clear
11:55 AM 7.3 °F -2.8 °F -2.4 °F 65% 30.43 in 10.0 mi SSW 5.8 mph - N/A   Clear
12:14 PM 7.2 °F -3.0 °F -2.7 °F 64% 30.42 in 10.0 mi SW 5.8 mph - N/A   Clear
12:34 PM 8.1 °F -2.0 °F -3.1 °F 60% 30.41 in 10.0 mi South 5.8 mph - N/A   Clear
12:54 PM 8.4 °F -0.1 °F -2.4 °F 62% 30.40 in 10.0 mi South 4.6 mph - N/A   Clear
1:14 PM 8.6 °F -3.7 °F -2.2 °F 62% 30.39 in 10.0 mi South 8.1 mph - N/A   Clear
1:34 PM 9.3 °F -1.7 °F -1.7 °F 61% 30.39 in 10.0 mi South 6.9 mph - N/A   Clear
1:54 PM 9.5 °F -3.5 °F -1.3 °F 62% 30.39 in 10.0 mi South 9.2 mph - N/A   Clear
2:14 PM 9.7 °F -4.2 °F -0.6 °F 63% 30.38 in 10.0 mi South 10.4 mph - N/A   Clear
2:34 PM 10.0 °F -2.9 °F -1.1 °F 61% 30.37 in 10.0 mi South 9.2 mph - N/A   Clear
2:54 PM 10.0 °F -2.9 °F -0.8 °F 62% 30.37 in 10.0 mi South 9.2 mph - N/A   Clear
3:14 PM 10.4 °F -4.1 °F -1.3 °F 59% 30.36 in 10.0 mi South 11.5 mph 17.3 mph N/A   Clear
3:34 PM 10.2 °F -4.3 °F -0.9 °F 61% 30.36 in 10.0 mi South 11.5 mph - N/A   Clear
3:55 PM 10.4 °F -3.3 °F 0.7 °F 65% 30.36 in 10.0 mi South 10.4 mph - N/A   Clear
4:14 PM 10.2 °F -3.5 °F 1.6 °F 68% 30.35 in 10.0 mi South 10.4 mph - N/A   Scattered Clouds
4:34 PM 10.4 °F -3.3 °F 2.3 °F 70% 30.34 in 10.0 mi SSW 10.4 mph - N/A   Mostly Cloudy
4:54 PM 10.9 °F -1.8 °F 2.5 °F 69% 30.34 in 10.0 mi SSW 9.2 mph - N/A   Mostly Cloudy
5:14 PM 11.7 °F -3.2 °F 3.9 °F 71% 30.34 in 10.0 mi SSW 12.7 mph - N/A   Mostly Cloudy
5:34 PM 12.4 °F -0.8 °F 4.6 °F 71% 30.33 in 10.0 mi SSW 10.4 mph 20.7 mph N/A   Overcast
5:54 PM 12.2 °F -2.5 °F 4.8 °F 72% 30.32 in 10.0 mi South 12.7 mph 21.9 mph N/A   Overcast
6:14 PM 12.6 °F -3.3 °F 5.5 °F 74% 30.32 in 10.0 mi SSW 15.0 mph 19.6 mph N/A   Overcast
6:35 PM 13.1 °F -3.7 °F 5.9 °F 73% 30.32 in 10.0 mi SSW 17.3 mph 21.9 mph N/A   Mostly Cloudy
6:54 PM 13.6 °F -2.4 °F 6.4 °F 73% 30.31 in 10.0 mi SSW 16.1 mph 21.9 mph N/A   Overcast
7:14 PM 14.0 °F -3.9 °F 6.6 °F 72% 30.31 in 10.0 mi South 20.7 mph - N/A   Overcast
7:34 PM 14.4 °F -2.5 °F 6.8 °F 72% 30.31 in 10.0 mi South 18.4 mph 26.5 mph N/A   Overcast
7:54 PM 14.5 °F -2.3 °F 7.0 °F 72% 30.30 in 10.0 mi SSW 18.4 mph 24.2 mph N/A   Overcast
8:14 PM 14.7 °F 0.1 °F 7.3 °F 73% 30.29 in 10.0 mi SSW 13.8 mph 23.0 mph N/A   Overcast
8:34 PM 15.1 °F -1.6 °F 7.9 °F 73% 30.28 in 10.0 mi SSW 18.4 mph 26.5 mph N/A   Overcast
8:54 PM 15.4 °F -1.1 °F 8.6 °F 74% 30.28 in 10.0 mi SSW 18.4 mph 26.5 mph N/A   Overcast
9:14 PM 16.0 °F 0.1 °F 9.3 °F 75% 30.27 in 10.0 mi SSW 17.3 mph 25.3 mph N/A   Overcast
9:34 PM 16.3 °F -0.4 °F 9.5 °F 74% 30.26 in 10.0 mi SSW 19.6 mph 26.5 mph N/A   Overcast
9:54 PM 16.5 °F -0.6 °F 9.1 °F 73% 30.26 in 10.0 mi South 20.7 mph 32.2 mph N/A   Overcast
10:14 PM 17.1 °F 1.0 °F 10.0 °F 74% 30.25 in 10.0 mi SSW 18.4 mph 26.5 mph N/A   Overcast
10:34 PM 17.6 °F 1.3 °F 11.3 °F 76% 30.24 in 10.0 mi SSW 19.6 mph 29.9 mph N/A   Overcast
10:54 PM 18.0 °F 2.2 °F 11.1 °F 75% 30.23 in 10.0 mi SSW 18.4 mph 26.5 mph N/A   Overcast
11:14 PM 18.5 °F 3.8 °F 11.8 °F 75% 30.24 in 10.0 mi SSW 16.1 mph 26.5 mph N/A   Overcast
11:35 PM 16.7 °F 3.8 °F 10.4 °F 76% 30.23 in 10.0 mi WSW 11.5 mph 21.9 mph N/A   Overcast
11:54 PM 13.8 °F 4.9 °F 7.0 °F 74% 30.23 in 10.0 mi WSW 5.8 mph - N/A   Overcast